Weather History for CWCL - December, 2013

Change the Weather History Date:

Tuesday, December 10, 2013

  Actual Average Record
Temperature  
Mean Temperature 18 °F -  
Max Temperature 23 °F 26 °F 45 °F (2014)
Min Temperature 14 °F 16 °F -11 °F (2000)
Degree Days  
Heating Degree Days 46    
Moisture  
Dew Point 10 °F    
Average Humidity 67    
Maximum Humidity 73    
Minimum Humidity 52    
Precipitation  
Precipitation 0.02 in - - ()
Sea Level Pressure  
Sea Level Pressure 30.37 in    
Wind  
Wind Speed 4 mph ()    
Max Wind Speed 8 mph    
Max Gust Speed -    
Visibility 9.0 miles    
Events      
Averages and records for this station are not official NWS values.
T = Trace of Precipitation, MM = Missing Value Source: Averaged Metar Reports

Daily Weather History Graph

Daily Weather History Graph

Search for Another Location

Airport or City:

Trip Planner

Search our weather history database for the weather conditions in past years. The results will help you decide how hot, cold, wet, or windy it might be!

Date:

Astronomy

Dec. 10, 2013 Rise Set
Actual Time 7:59 AM PST 3:58 PM PST
Civil Twilight 7:19 AM PST 4:38 PM PST
Nautical Twilight 6:37 AM PST 5:20 PM PST
Astronomical Twilight 5:56 AM PST 6:01 PM PST
Moon 12:38 PM PST (12/10) 12:44 AM PST (12/10)
Length of Visible Light 9h 18m
Length of Day
7h 59m
Waxing Gibbous, 63% of the Moon is Illuminated
Dec 10
Waxing Gibbous
Dec 17
Full
Dec 25
Last Quarter
Jan 1
New
Jan 7
First Quarter

Hourly Weather History & Observations

Time (PST) Temp. Windchill Dew Point Humidity Pressure Visibility Wind Dir Wind Speed Gust Speed Precip Events Conditions
12:00 AM 17.6 °F 9.3 °F 8.6 °F 68% 30.30 in 9.0 mi South 5.8 mph - N/A   Mostly Cloudy
1:00 AM 17 °F - 9 °F 59% 30.30 in 9 mi SW 4.6 mph - -  
1:00 AM 17.6 °F 9.3 °F 8.6 °F 68% 30.30 in 9.0 mi SSW 5.8 mph - N/A   Mostly Cloudy
2:00 AM 15.8 °F 7.2 °F 8.6 °F 73% 30.31 in 9.0 mi SSW 5.8 mph - N/A   Mostly Cloudy
3:00 AM 17.6 °F 9.3 °F 8.6 °F 68% 30.34 in 9.0 mi SSW 5.8 mph - N/A   Scattered Clouds
4:00 AM 15 °F - 7 °F 59% 30.37 in 9 mi SW 5.8 mph - -  
4:00 AM 14.0 °F 8.2 °F 6.8 °F 73% 30.37 in 9.0 mi SSW 3.5 mph - N/A   Scattered Clouds
5:00 AM 15.8 °F 7.2 °F 6.8 °F 68% 30.36 in 9.0 mi SW 5.8 mph - N/A   Mostly Cloudy
6:00 AM 17.6 °F 10.7 °F 8.6 °F 68% 30.37 in 9.0 mi SSW 4.6 mph - N/A   Mostly Cloudy
7:00 AM 17 °F - 10 °F 62% 30.38 in 9 mi SW 3.5 mph - -  
7:00 AM 17.6 °F 12.3 °F 10.4 °F 73% 30.38 in 9.0 mi SW 3.5 mph - N/A   Mostly Cloudy
8:00 AM 17.6 °F - 10.4 °F 73% 30.40 in 9.0 mi Calm Calm - N/A   Overcast
9:00 AM 17.6 °F 12.3 °F 10.4 °F 73% 30.41 in 9.0 mi SW 3.5 mph - N/A   Overcast
10:00 AM 19.4 °F - 10.4 °F 68% 30.42 in 9.0 mi SSW 2.3 mph - N/A   Overcast
11:00 AM 19.4 °F - 10.4 °F 68% 30.42 in 9.0 mi SSW 2.3 mph - N/A   Overcast
12:00 PM 21.2 °F 14.9 °F 10.4 °F 63% 30.41 in 9.0 mi South 4.6 mph - N/A   Overcast
1:00 PM 22 °F - 12 °F 52% 30.40 in 9 mi South 3.5 mph - -   Overcast
1:00 PM 21.2 °F 16.4 °F 12.2 °F 68% 30.40 in 9.0 mi South 3.5 mph - N/A   Overcast
2:00 PM 23.0 °F - 12.2 °F 63% 30.40 in 9.0 mi South 2.3 mph - N/A   Overcast
3:00 PM 23.0 °F 15.8 °F 12.2 °F 63% 30.41 in 9.0 mi SSW 5.8 mph - N/A   Overcast
4:00 PM 21 °F - 12 °F 56% 30.39 in 9 mi SSW 4.6 mph - -  
4:00 PM 21.2 °F 13.6 °F 12.2 °F 68% 30.39 in 9.0 mi SSW 5.8 mph - N/A   Mostly Cloudy
5:00 PM 19.4 °F 11.5 °F 10.4 °F 68% 30.38 in 9.0 mi South 5.8 mph - N/A   Clear
6:00 PM 19.4 °F 10.4 °F 10.4 °F 68% 30.37 in 9.0 mi SSW 6.9 mph - N/A   Clear
7:00 PM 19 °F - 11 °F 59% 30.36 in 9 mi SSW 4.6 mph - -  
7:00 PM 19.4 °F 12.8 °F 10.4 °F 68% 30.36 in 9.0 mi SSW 4.6 mph - N/A   Mostly Cloudy
8:00 PM 17.6 °F 8.2 °F 10.4 °F 73% 30.36 in 9.0 mi SSW 6.9 mph - N/A   Mostly Cloudy
9:00 PM 19.4 °F 9.5 °F 10.4 °F 68% 30.36 in 9.0 mi South 8.1 mph - N/A   Clear
10:00 PM 17.6 °F 9.3 °F 10.4 °F 73% 30.35 in 9.0 mi SSW 5.8 mph - N/A   Partly Cloudy
11:00 PM 17.6 °F 8.2 °F 10.4 °F 73% 30.36 in 9.0 mi South 6.9 mph - N/A   Clear